Location: Caltech
(34.1382°N, 118.1253°W)
Time: 13:23:15
(UTC-07:00)

Iridium 72 - Visible Passes

Search period start: 22 April 2018 00:00
Search period end: 02 May 2018 00:00
Orbit: 776 x 779 km, 86.4° (Epoch: 22 April)

Date Brightness Start Highest point End Pass type
(mag) Time Alt. Az. Time Alt. Az. Time Alt. Az.
22 Apr 8.6 03:27:36 10° ENE 03:28:16 10° ENE 03:28:56 10° E visible
22 Apr 5.5 05:04:17 10° N 05:09:28 71° W 05:14:39 10° S visible
23 Apr 6.1 04:30:48 10° N 04:35:58 59° E 04:41:06 10° SSE visible
24 Apr 7.3 03:57:45 10° NNE 04:02:20 30° E 04:06:53 10° SE visible
24 Apr 6.6 05:38:42 10° NNW 05:42:51 24° W 05:46:59 10° SW visible
25 Apr 8.2 03:25:26 10° NE 03:28:35 16° ENE 03:31:43 10° ESE visible
25 Apr 5.8 05:04:32 10° NNW 05:09:31 47° W 05:14:29 10° SSW visible
26 Apr 5.5 04:30:50 10° N 04:36:05 89° E 04:41:18 10° S visible
27 Apr 6.5 03:57:31 10° NNE 04:02:31 45° E 04:07:30 10° SSE visible
27 Apr 7.1 05:39:37 10° NW 05:42:47 16° W 05:45:57 10° WSW visible
28 Apr 7.6 03:24:42 10° NNE 03:28:51 24° E 03:32:59 10° SE visible
28 Apr 6.3 05:04:58 10° NNW 05:09:32 31° W 05:14:05 10° SW visible
29 Apr 8.3 02:53:03 10° NE 02:55:03 12° ENE 02:57:02 10° E visible
29 Apr 5.5 04:31:01 10° N 04:36:09 61° W 04:40:04 17° SSW visible
30 Apr 5.7 03:57:28 10° N 04:02:40 69° E 04:06:01 22° SSE visible
01 May 6.9 03:24:18 10° NNE 03:29:04 35° E 03:32:03 20° SE visible
01 May 6.8 05:05:38 10° NW 05:09:29 21° W 05:12:28 13° WSW visible
